Location: Newark
(13.8117°N, 3.6025°W)
Time: 05:11:26
(UTC+00:00)

Courier 1B - Pass Details

Date: 23 August 2019
Orbit: 962 x 1209 km, 28.3° (Epoch: 22 September)

Event Time Altitude Azimuth Distance (km) Brightness Sun altitude
Rises 22:03:11 0° 303° (WNW) 3,641 11.2 -48.4°
Reaches altitude 10° 22:05:58 10° 310° (NW) 2,685 10.3 -48.9°
Enters shadow 22:06:30 12° 312° (NW) 2,513 10.1 -49.0°
